TimeCST,TemperatureF,Dew PointF,Humidity,Sea Level PressureIn,VisibilityMPH,Wind Direction,Wind SpeedMPH,Gust SpeedMPH,PrecipitationIn,Events,Conditions,WindDirDegrees,DateUTC
12:15 AM,35.6,15.8,44,29.67,10.0,SE,15.0,-,N/A,,Mostly Cloudy,140,2014-02-28 06:15:00
12:35 AM,35.6,15.8,44,29.66,10.0,SE,13.8,-,N/A,,Scattered Clouds,140,2014-02-28 06:35:00
12:55 AM,35.6,15.8,44,29.65,10.0,SE,13.8,-,N/A,,Scattered Clouds,140,2014-02-28 06:55:00
1:15 AM,35.6,15.8,44,29.65,10.0,SE,15.0,-,N/A,,Partly Cloudy,140,2014-02-28 07:15:00
1:35 AM,35.6,17.6,48,29.65,10.0,SSE,12.7,-,N/A,,Scattered Clouds,150,2014-02-28 07:35:00
1:55 AM,37.4,17.6,45,29.63,10.0,SE,18.4,23.0,N/A,,Mostly Cloudy,140,2014-02-28 07:55:00
2:15 AM,37.4,19.4,48,29.62,10.0,South,20.7,28.8,N/A,,Overcast,170,2014-02-28 08:15:00
2:35 AM,39.2,17.6,42,29.62,10.0,SSE,18.4,27.6,N/A,,Mostly Cloudy,160,2014-02-28 08:35:00
2:55 AM,39.2,19.4,45,29.60,10.0,SSE,18.4,-,N/A,,Mostly Cloudy,160,2014-02-28 08:55:00
3:15 AM,39.2,19.4,45,29.58,10.0,South,20.7,-,N/A,,Mostly Cloudy,170,2014-02-28 09:15:00
3:35 AM,39.2,19.4,45,29.57,10.0,SSE,15.0,-,N/A,,Partly Cloudy,160,2014-02-28 09:35:00
3:55 AM,39.2,19.4,45,29.56,10.0,SSE,18.4,-,N/A,,Clear,160,2014-02-28 09:55:00
4:15 AM,37.4,19.4,48,29.56,10.0,SSE,16.1,-,N/A,,Clear,160,2014-02-28 10:15:00
4:35 AM,37.4,19.4,48,29.56,10.0,SE,13.8,-,N/A,,Clear,140,2014-02-28 10:35:00
4:55 AM,37.4,21.2,52,29.56,10.0,SSE,13.8,-,N/A,,Partly Cloudy,150,2014-02-28 10:55:00
5:15 AM,37.4,21.2,52,29.57,10.0,SSE,10.4,-,N/A,,Partly Cloudy,150,2014-02-28 11:15:00
5:35 AM,37.4,21.2,52,29.58,10.0,SSE,10.4,-,N/A,,Partly Cloudy,150,2014-02-28 11:35:00
5:55 AM,37.4,21.2,52,29.60,10.0,SSE,9.2,-,N/A,,Clear,160,2014-02-28 11:55:00
6:15 AM,37.4,21.2,52,29.60,10.0,SSE,9.2,-,N/A,,Clear,160,2014-02-28 12:15:00
6:35 AM,37.4,21.2,52,29.61,10.0,SSE,11.5,-,N/A,,Clear,160,2014-02-28 12:35:00
6:55 AM,37.4,21.2,52,29.62,10.0,SE,4.6,-,N/A,,Clear,130,2014-02-28 12:55:00
7:15 AM,35.6,21.2,56,29.63,10.0,SE,3.5,-,N/A,,Clear,140,2014-02-28 13:15:00
7:35 AM,33.8,21.2,60,29.64,10.0,ESE,3.5,-,N/A,,Clear,120,2014-02-28 13:35:00
7:55 AM,35.6,23.0,60,29.65,10.0,ESE,4.6,-,N/A,,Clear,120,2014-02-28 13:55:00
8:15 AM,37.4,24.8,60,29.66,10.0,SE,4.6,-,N/A,,Clear,130,2014-02-28 14:15:00
8:35 AM,39.2,24.8,56,29.66,10.0,SE,10.4,-,N/A,,Clear,140,2014-02-28 14:35:00
8:55 AM,39.2,26.6,61,29.66,10.0,SE,12.7,-,N/A,,Clear,140,2014-02-28 14:55:00
9:15 AM,41.0,26.6,57,29.68,10.0,SSE,10.4,-,N/A,,Clear,150,2014-02-28 15:15:00
9:35 AM,42.8,28.4,57,29.68,10.0,SE,9.2,-,N/A,,Clear,140,2014-02-28 15:35:00
9:55 AM,42.8,28.4,57,29.69,10.0,South,9.2,-,N/A,,Clear,170,2014-02-28 15:55:00
10:15 AM,42.8,28.4,57,29.70,10.0,SSE,5.8,-,N/A,,Clear,160,2014-02-28 16:15:00
10:35 AM,44.6,28.4,53,29.70,10.0,SSE,10.4,-,N/A,,Clear,160,2014-02-28 16:35:00
10:55 AM,44.6,30.2,57,29.70,10.0,South,8.1,-,N/A,,Clear,190,2014-02-28 16:55:00
11:15 AM,44.6,30.2,57,29.70,10.0,South,5.8,-,N/A,,Clear,180,2014-02-28 17:15:00
11:35 AM,46.4,32.0,57,29.71,10.0,Calm,Calm,-,N/A,,Clear,0,2014-02-28 17:35:00
11:55 AM,48.2,32.0,54,29.71,10.0,SW,6.9,-,N/A,,Clear,220,2014-02-28 17:55:00
12:15 PM,48.2,32.0,54,29.72,10.0,SE,3.5,-,N/A,,Clear,130,2014-02-28 18:15:00
12:35 PM,48.2,33.8,58,29.73,10.0,SW,3.5,-,N/A,,Clear,230,2014-02-28 18:35:00
12:55 PM,50.0,33.8,54,29.73,10.0,SW,8.1,-,N/A,,Clear,230,2014-02-28 18:55:00
1:15 PM,51.8,33.8,50,29.72,10.0,South,5.8,-,N/A,,Clear,180,2014-02-28 19:15:00
1:35 PM,51.8,33.8,50,29.74,10.0,Calm,Calm,-,N/A,,Clear,0,2014-02-28 19:35:00
1:55 PM,53.6,33.8,47,29.73,10.0,North,9.2,-,N/A,,Clear,350,2014-02-28 19:55:00
2:15 PM,53.6,33.8,47,29.73,10.0,NNW,5.8,-,N/A,,Clear,330,2014-02-28 20:15:00
2:35 PM,55.4,33.8,44,29.73,10.0,North,8.1,-,N/A,,Clear,360,2014-02-28 20:35:00
2:55 PM,55.4,32.0,41,29.73,10.0,NNE,9.2,-,N/A,,Clear,20,2014-02-28 20:55:00
3:15 PM,55.4,32.0,41,29.74,10.0,NNE,10.4,-,N/A,,Clear,20,2014-02-28 21:15:00
3:35 PM,55.4,32.0,41,29.74,10.0,NNE,10.4,-,N/A,,Clear,30,2014-02-28 21:35:00
3:55 PM,55.4,30.2,38,29.75,10.0,North,10.4,-,N/A,,Clear,10,2014-02-28 21:55:00
4:15 PM,55.4,30.2,38,29.76,10.0,North,11.5,-,N/A,,Clear,350,2014-02-28 22:15:00
4:35 PM,55.4,28.4,36,29.77,10.0,NNE,12.7,-,N/A,,Clear,20,2014-02-28 22:35:00
4:55 PM,53.6,28.4,38,29.78,10.0,North,12.7,-,N/A,,Clear,10,2014-02-28 22:55:00
5:15 PM,53.6,28.4,38,29.79,10.0,NNE,9.2,-,N/A,,Clear,20,2014-02-28 23:15:00
5:35 PM,48.2,23.0,37,29.81,10.0,NNE,20.7,-,N/A,,Clear,20,2014-02-28 23:35:00
5:55 PM,46.4,23.0,40,29.82,10.0,North,17.3,-,N/A,,Clear,10,2014-02-28 23:55:00
6:15 PM,44.6,21.2,39,29.83,10.0,North,17.3,-,N/A,,Clear,360,2014-03-01 00:15:00
6:35 PM,41.0,21.2,45,29.85,10.0,North,18.4,-,N/A,,Clear,10,2014-03-01 00:35:00
6:55 PM,39.2,21.2,49,29.87,10.0,North,13.8,-,N/A,,Clear,10,2014-03-01 00:55:00
7:15 PM,39.2,21.2,49,29.88,10.0,NNE,12.7,-,N/A,,Clear,20,2014-03-01 01:15:00
7:35 PM,37.4,21.2,52,29.90,10.0,North,12.7,-,N/A,,Clear,10,2014-03-01 01:35:00
7:55 PM,37.4,21.2,52,29.92,10.0,NNE,16.1,-,N/A,,Clear,20,2014-03-01 01:55:00
8:15 PM,35.6,19.4,52,29.94,10.0,NNE,15.0,-,N/A,,Clear,20,2014-03-01 02:15:00
8:35 PM,35.6,19.4,52,29.94,10.0,NNE,13.8,-,N/A,,Clear,20,2014-03-01 02:35:00
8:55 PM,33.8,19.4,56,29.95,10.0,NNE,20.7,24.2,N/A,,Clear,20,2014-03-01 02:55:00
9:15 PM,32.0,19.4,60,29.96,10.0,NNE,18.4,24.2,N/A,,Clear,30,2014-03-01 03:15:00
9:35 PM,30.2,19.4,64,29.98,10.0,NNE,18.4,21.9,N/A,,Clear,20,2014-03-01 03:35:00
9:55 PM,30.2,19.4,64,30.00,10.0,NNE,19.6,-,N/A,,Clear,20,2014-03-01 03:55:00
10:15 PM,28.4,19.4,69,30.01,10.0,NNE,16.1,-,N/A,,Clear,20,2014-03-01 04:15:00
10:35 PM,26.6,19.4,74,30.02,10.0,NNE,16.1,23.0,N/A,,Partly Cloudy,30,2014-03-01 04:35:00
10:55 PM,26.6,17.6,69,30.03,10.0,NNE,19.6,25.3,N/A,,Mostly Cloudy,20,2014-03-01 04:55:00
11:15 PM,26.6,17.6,69,30.03,10.0,NE,18.4,-,N/A,,Mostly Cloudy,40,2014-03-01 05:15:00
11:35 PM,24.8,17.6,74,30.03,10.0,NNE,20.7,24.2,N/A,,Scattered Clouds,30,2014-03-01 05:35:00
11:55 PM,24.8,15.8,69,30.03,10.0,NNE,16.1,-,N/A,,Mostly Cloudy,20,2014-03-01 05:55:00